Regional Weather Roundup
Issued by NWS

Home | Current Version | Previous Version | Text Only | Print | Product List | Glossary Off
Versions: 1 2 3 4 5 6 7 8 9 10 11 12 13 14 15 16 17 18 19 20 21 22 23 24 25 26 27 28 29 30 31 32 33 34 35 36 37 38 39 40 41 42 43 44 45 46 47 48 49 50

000
ASUS43 KIND 182359
RWRIN

WEATHER ROUNDUP FOR INDIANA
NATIONAL WEATHER SERVICE INDIANAPOLIS IN
800 PM EDT THU SEP 18 2014

NOTE: "FAIR" INDICATES FEW OR NO CLOUDS BELOW 12,000 FEET WITH NO
SIGNIFICANT WEATHER AND/OR OBSTRUCTIONS TO VISIBILITY.

* - STATION DOES NOT REPORT WEATHER SUCH AS PRECIPITATION OR FOG.

+ - STATION NOT QUALITY CONTROLLED BY THE NATIONAL WEATHER SERVICE.
    USE DATA WITH CAUTION...ESPECIALLY DEWPOINT AND RELATIVE
    HUMIDITY OBSERVATIONS.

INZ001>003-010>013-019-020-190100-
NORTHWEST INDIANA

CITY           SKY/WX    TMP DP  RH WIND       PRES   REMARKS
GARY /AIRPORT/ PTCLDY    63  57  82 N7        30.12S
VALPARAISO     CLEAR     60  53  77 N3        30.11R
6HR MIN TEMP:  60; 6HR MAX TEMP:  73;


$$

LMZ046-743>745-190100-
SOUTHERN LAKE MICHIGAN

STATION/POSITION TIME  TEMP WIND        PRES
                       AIR  DIR/SP/G
                 (UTC) (F)  (DEG/KT/KT) (MB)
MICHIGAN CITY    2300   63   10/ 12/ 15   N/A

$$

INZ004-005-014>016-021>024-190100-
NORTH CENTRAL INDIANA

CITY           SKY/WX    TMP DP  RH WIND       PRES   REMARKS
ELKHART        CLEAR     64  50  59 NE3       30.12S
GOSHEN         CLEAR     62  51  67 NE7       30.11R
6HR MIN TEMP:  62; 6HR MAX TEMP:  72;

SOUTH BEND     CLEAR     66  50  56 NE3       30.11S
6HR MIN TEMP:  66; 6HR MAX TEMP:  73;


$$

INZ006>009-017-018-025>027-190100-
NORTHEAST INDIANA

CITY           SKY/WX    TMP DP  RH WIND       PRES   REMARKS
ANGOLA *+      CLEAR     63  52  67 CALM      30.12S
FORT WAYNE     PTCLDY    62  51  67 E3        30.11R
6HR MIN TEMP:  62; 6HR MAX TEMP:  71;


$$

INZ028-029-035-036-043>045-051>053-190100-
WEST CENTRAL INDIANA

CITY           SKY/WX    TMP DP  RH WIND       PRES   REMARKS
GREENCASTLE +  CLEAR     63  50  63 CALM      30.07S
LAFAYETTE      CLEAR     64  49  57 E8        30.07S
6HR MIN TEMP:  64; 6HR MAX TEMP:  71;

TERRE HAUTE    CLEAR     62  52  69 E3        30.05S
6HR MIN TEMP:  62; 6HR MAX TEMP:  74;


$$

INZ030>032-037>040-046>048-054>057-064-065-190100-
CENTRAL INDIANA

CITY           SKY/WX    TMP DP  RH WIND       PRES   REMARKS
COLUMBUS       CLEAR     64  48  55 E6        30.07
INDIANAPOLIS   CLEAR     67  46  47 E7        30.07R
6HR MIN TEMP:  67; 6HR MAX TEMP:  72;

-EAGLE CREEK   CLEAR     67  46  47 NE5       30.07R
6HR MIN TEMP:  67; 6HR MAX TEMP:  73;

KOKOMO *+      CLEAR     61  48  63 E5        30.09S
MT COMFORT *+  CLEAR     61  46  59 E6        30.09R
SHELBYVILLE    CLEAR     64  50  60 NE5       30.07R
6HR MIN TEMP:  64; 6HR MAX TEMP:  76;


$$

INZ033-034-041-042-049-050-058-059-190100-
EAST CENTRAL INDIANA

CITY           SKY/WX    TMP DP  RH WIND       PRES   REMARKS
MUNCIE         CLEAR     62  48  60 E7        30.09S
6HR MIN TEMP:  61; 6HR MAX TEMP:  72;


$$

INZ060-061-067>069-081>083-085>088-190100-
SOUTHWEST INDIANA

CITY           SKY/WX    TMP DP  RH WIND       PRES   REMARKS
EVANSVILLE     CLEAR     68  54  60 NE7       30.02S
6HR MIN TEMP:  68; 6HR MAX TEMP:  75;


$$

INZ062-063-066-070>080-084-089>092-190100-
SOUTH CENTRAL AND SOUTHEAST INDIANA

CITY           SKY/WX    TMP DP  RH WIND       PRES   REMARKS
BLOOMINGTON    CLEAR     58  53  84 CALM      30.06R
6HR MIN TEMP:  58; 6HR MAX TEMP:  73;


$$




USA.gov is the U.S. government's official web portal to all federal, state and local government web resources and services.